Showing default

CENTISPACE-1 S14, 62583

Orbit data source: Space-Track

CENTISPACE-1 S14, 62583 is a payload satellite owned by Centispace (CN) in LEO that was launched on Mon, 13 Jan 2025 UTC via a JIELONG-3 launch vehicle from the Yellow Sea Launch Area, China (YSLA). Payload-class satellites include a variety of spacecraft equipped with specific instruments for various scientific and technological missions. These include communications satellites like Starlink; space stations such as the ISS; scientific satellites like the Hubble; Earth observation satellites from companies like Planet Labs, Umbra, and HawkEye 360; GPS; miniature CubeSats for education and research; and military/defense satellites.

Loading next visibility...
Identifier
62583, 2025-007J
Orbit
LEO
Country
Flag of CNCN / PRC
Related business
Manufacturer
DFH Shenzhen
Mission
Operational Commercial Nav/Com
Bus & Motor
WK01, Unknown motor
Mass
140 kg wet, 140 kg dry
Launch date (UTC)
2025-01-13 (8 months ago)
Launch vehicle
JIELONG-3
Launch site
Yellow Sea Launch Area, China (YSLA)
Object type
Payload
Rocket body
Debris
Shape & HBR
Box + 2 Pan, 1.0 m
Radar Cross Section
0.833 m², Medium (>0.1 m² and < 1m²)

Expand to show TLE details & history
Last TLE update: 21 hours ago

TLE from 21 hours ago
0 CENTISPACE-1 S14
1 62583U 25007J   25257.55361449  .00000309  00000-0  12814-3 0  9997
2 62583  54.9803 218.6645 0062966 356.1580   3.8915 14.47543048 35952
Epoch: 2025-09-14T13:17Z
TLE epoch observation values (Epoch: 2025-09-14T13:17:12.291Z)
Latitude
-0.00007°
Longitude
25.59227°
Altitude
690.063 km
Speed
7.536 km/s
True Right ascension
14h 34m 39s
True Declination
0° 00' 00"
Sunlit
Object was in daylight at epoch
Visualization orbit readout
Latitude
Unknown
Longitude
Unknown
Altitude
Unknown
Speed
Unknown
Apparent Right ascension
Unknown
Apparent Declination
Unknown
Sunlit
N/A
Visualization observer readout
Local Sidereal Time
03:06:18
Azimuth
Unknown
Elevation
Unknown
Doppler factor
Unknown
Orbital elements
Apogee altitude
778.432 km
Perigee altitude
688.871 km
Semi-major axis
7,111.789 km
Eccentricity
0.0063
Inclination
54.9803°
RAAN
218.6645°
Arg. of periapsis
356.158°
True anomaly
3.94086°
Mean anomaly
3.8915°
Eccentric anomaly
3.91614°
Mean motion
3.61889 °/min
Orbital period
99.48 mins
BSTAR
0.00012814
Loading maneuver chart data...
Computing Atmospheric mass density...
Loading historical data...
Loading historical data...
Loading historical data...
Loading historical data...
Loading historical data...
Loading historical data...
Loading historical data...

Documentation

Showing up to 5 results
|